Regional Weather Roundup
Issued by NWS

Home | Current Version | Previous Version | Text Only | Print | Product List | Glossary Off
Versions: 1 2 3 4 5 6 7 8 9 10 11 12 13 14 15 16 17 18 19 20 21 22 23 24 25 26 27 28 29 30 31 32 33 34 35 36 37 38 39 40 41 42 43 44 45 46 47 48 49 50

000
ASUS43 KMKX 231911
RWRWI

WISCONSIN REGIONAL WEATHER ROUNDUP
NATIONAL WEATHER SERVICE MILWAUKEE/SULLIVAN WI
200 PM CDT MON OCT 23 2017

NOTE: "FAIR" INDICATES FEW OR NO CLOUDS BELOW 12,000 FEET WITH NO
SIGNIFICANT WEATHER AND/OR OBSTRUCTIONS TO VISIBILITY.

WIZ001-002-006>008-014>016-023>028-232000-
NORTHWEST WISCONSIN

CITY           SKY/WX    TMP DP  RH WIND       PRES   REMARKS
SUPERIOR ARPT  MOSUNNY   63  43  48 W13G20    29.68F
ASHLAND        MOSUNNY   62  41  46 W12       29.68S
HAYWARD        SUNNY     59  39  47 VRB6      29.70F
SIREN          PTSUNNY   60  39  45 NW15G21   29.72R
CUMBERLAND     MOSUNNY   57  41  54 W13       29.71S
RICE LAKE      MOSUNNY   59  42  53 W8        29.73S
CHETEK         PTSUNNY   56  43  62 NW5       29.72S
LADYSMITH      SUNNY     58  42  56 W6        29.72F
EAU CLAIRE     CLOUDY    55  42  61 W8        29.72S
MENOMONIE      CLOUDY    56  43  61 W10       29.73S
NEW RICHMOND   PTSUNNY   59  36  41 W16G24    29.74F
OSCEOLA        MOSUNNY   61  38  43 W18G25    29.77F
$$

WIZ003>005-009-010-017-018-232000-
NORTH CENTRAL WISCONSIN

CITY           SKY/WX    TMP DP  RH WIND       PRES   REMARKS
MANITOWISH WTR MOSUNNY   56  42  58 S7        29.70S
ARBOR VITAE    MOSUNNY   55  42  61 S6        29.72R
WOODRUFF       MOSUNNY   55  42  61 S6        29.72R
RHINELANDER    CLOUDY    55  39  54 SW10      29.72F
EAGLE RIVER    CLOUDY    56  34  44 S9        29.70F
LAND O LAKES   CLOUDY    57  37  46 S8        29.71F
PHILLIPS       SUNNY     56  40  55 SW3       29.69F
TOMAHAWK       CLOUDY    55  40  56 S3        29.71F
MEDFORD        CLOUDY    53  40  60 S5        29.71F
MERRILL        CLOUDY    55  42  61 S7        29.72F
$$

WIZ029-030-035-036-043>047-232000-
CENTRAL WISCONSIN

CITY           SKY/WX    TMP DP  RH WIND       PRES   REMARKS
WAUSAU         CLOUDY    54  41  61 S7        29.70F
MOSINEE        PTSUNNY   54  43  66 S7        29.73F
MARSHFIELD     CLOUDY    55  40  56 SW3       29.70F
STEVENS POINT  MOSUNNY   54  39  56 S5        29.72F
WAUPACA        CLOUDY    55  46  69 SE5       29.74F
WAUTOMA        CLOUDY   N/A N/A N/A S6        29.73F
WISC RAPIDS    CLOUDY    57  43  59 W9        29.72F
CAMP DOUGLAS   PTSUNNY   59  41  51 W7        29.70F
$$

WIZ011>013-019>022-031-037>040-048>050-232000-
NORTHEAST WISCONSIN

CITY           SKY/WX    TMP DP  RH WIND       PRES   REMARKS
ANTIGO         CLOUDY    51  40  64 S8        29.73F
SHAWANO        CLOUDY    54  46  75 CALM      29.75F
OCONTO         CLOUDY    51  44  78 SE3       29.75F
STURGEON BAY   CLOUDY    53  44  71 NE5       29.75F
GREEN BAY      CLOUDY    53  48  83 S3        29.74F
MANITOWOC      CLOUDY    53  42  66 CALM      29.74F
APPLETON       PTSUNNY   54  43  66 S6        29.73F
CLINTONVILLE   CLOUDY    52  43  71 S3        29.74F
OSHKOSH        CLOUDY    53  43  68 S5        29.73F
$$

WIZ032>034-041-042-053>061-232000-
SOUTHWEST WISCONSIN

CITY           SKY/WX    TMP DP  RH WIND       PRES   REMARKS
LA CROSSE      CLOUDY    58  44  60 N5        29.74F
SPARTA         CLOUDY    57  42  59 W5        29.73F
VIROQUA        MOSUNNY   56  44  64 W7        29.74F
BOSCOBEL       MOSUNNY   59  44  57 SW9       29.74F
PRAIRIE DU CHI CLOUDY    60  42  53 W15       29.75F
PLATTEVILLE    MOSUNNY   57  46  66 W8        29.74F
$$

WIZ056-057-062-063-064-067-068-232000-
SOUTH CENTRAL WISCONSIN

CITY           SKY/WX    TMP DP  RH WIND       PRES   REMARKS
REEDSBURG      CLOUDY    56  44  63 SW5       29.71F
BARABOO/DELLS  CLOUDY    56  41  58 S3        29.72F
LONE ROCK      CLOUDY    60  46  59 W9        29.72F
MINERAL POINT  MOSUNNY   61  46  59 SW8       29.73F
MADISON        CLOUDY    55  43  63 S5        29.73F
MIDDLETON      PTSUNNY   58  42  55 S6        29.73F
WATERTOWN      CLOUDY    51  46  81 CALM      29.73F
MONROE         CLOUDY    55  37  50 S6        29.74F
JANESVILLE     CLOUDY    54  45  71 CALM      29.74F
$$

WIZ051-052-058>065-066-070>072-232000-
SOUTHEAST WISCONSIN

CITY           SKY/WX    TMP DP  RH WIND       PRES   REMARKS
MILWAUKEE      CLOUDY    54  49  83 NW5       29.74F
WAUKESHA       SUNNY     50  45  81 W6        29.75F
MILWAUKEE/TIMM SUNNY     52  45  76 NW3       29.75F
RACINE         CLOUDY    52  50  93 NW6       29.74F
BURLINGTON     CLOUDY    52  51  96 W5        29.74F
KENOSHA        CLOUDY    52  48  86 NW9       29.73F
FOND DU LAC    PTSUNNY   54  41  61 SW3       29.73F
SHEBOYGAN      PTSUNNY   53  47  79 CALM      29.73F
WEST BEND      CLOUDY    52  45  76 CALM      29.73F
JUNEAU         CLOUDY    51  44  76 CALM      29.74F
$$

LSZ147-162-232000-
LAKE SUPERIOR

STATION/POSITION TIME  TEMP    WIND        PRES    WAVE
                       AIR SEA DIR/SP/G            HT/PER
                 (UTC) (F)     (DEG/KT/KT) (MB)    (FT/S)
W MID LAKE BUOY  1750   53 51              1005.1F   3/ 5
DEVILS ISLAND    1900   56     230/  9/ 11 1005.0S
SAXON HARBOR     1840   58     230/  5/  9 1004.7S
$$

LMZ867-665-643>646-232000-
LAKE MICHIGAN

STATION/POSITION TIME  TEMP    WIND        PRES    WAVE
                       AIR SEA DIR/SP/G            HT/PER
                 (UTC) (F)     (DEG/KT/KT) (MB)    (FT/S)
S GREEN BAY BUOY 1900   51 58  130/  4/  4 1007.4
N MID LAKE BUOY  1850   53 57  330/  2/  2 1008.8F   0
NORTHPORT PIER   1840   53        CALM     1008.1F
KEWAUNEE LAKESHO 1848   52      50/  2/  2 1006.8F
SHEBOYGAN LAKESH 1900   50      20/  6/  7 1006.9F
PORT WASHINGTON  1830   55      20/  3/  5 1008.5F
MILWAUKEE LAKESH 1850   53     320/  4/  5   N/A
S MID LAKE BUOY  1750   54 59  360/ 16/ 17 1006.8F   3/ 4
KENOSHA   LAKESH 1900   52     330/  9/ 11 1006.4
$$

TC  - TEMPERATURE IN CELSIUS
VSB - VISIBILITY IN STATUTE MILES
WCI - WIND CHILL INDEX
HX  - HEAT INDEX





USA.gov is the U.S. government's official web portal to all federal, state and local government web resources and services.